Regional Weather Roundup
Issued by NWS Little Rock, AR

Home | Current Version | Previous Version | Graphics & Text | Print | Product List | Glossary On
Versions: 1 2 3 4 5 6 7 8 9 10 11 12 13 14 15 16 17 18 19 20 21 22 23 24 25 26 27 28 29 30 31 32 33 34 35 36 37 38 39 40 41 42 43 44 45 46 47 48 49 50
000
ASUS44 KLZK 060005
RWRLZK

WEATHER ROUNDUP FOR ARKANSAS
NATIONAL WEATHER SERVICE LITTLE ROCK AR
700 PM CDT TUE MAY 05 2015

NOTE: "FAIR" INDICATES FEW OR NO CLOUDS BELOW 12,000 FEET WITH NO
SIGNIFICANT WEATHER AND/OR OBSTRUCTIONS TO VISIBILITY.

ARZ001-003-010-029-060100-
NORTHWEST ARKANSAS

CITY           SKY/WX    TMP DP  RH WIND       PRES   REMARKS
FAYETTEVILLE   MOSUNNY   75  60  59 SE15G22   30.03S
6HR MIN TEMP:  70; 6HR MAX TEMP:  79; 6HR PCP:  0.01;

FORT SMITH     MOSUNNY   81  52  36 E15G24    29.97F
6HR MIN TEMP:  79; 6HR MAX TEMP:  84;

HARRISON       PTSUNNY   75  55  49 SE9       30.08F
6HR MIN TEMP:  75; 6HR MAX TEMP:  80;

BENTONVILLE    MOSUNNY   75  52  43 SE13G21   30.03F
6HR MIN TEMP:  72; 6HR MAX TEMP:  81; 6HR PCP:  0.04;

ROGERS         MOSUNNY   76  54  46 SE14      30.04S
6HR MIN TEMP:  76; 6HR MAX TEMP:  81;

SILOAM SPGS    PTSUNNY   73  54  49 SE12      30.02F
6HR MIN TEMP:  73; 6HR MAX TEMP:  79;

HIGHFILL       MOSUNNY   76  52  43 SE14      30.01F
6HR MIN TEMP:  76; 6HR MAX TEMP:  81; 6HR PCP: TRACE;

SPRINGDALE     PTSUNNY   77  54  44 S14G25    30.05F
$$

ARZ004-005-016-060100-
NORTH CENTRAL ARKANSAS

CITY           SKY/WX    TMP DP  RH WIND       PRES   REMARKS
BATESVILLE     SUNNY     81  54  39 S5        30.09S
6HR MIN TEMP:  81; 6HR MAX TEMP:  84;

FLIPPIN        SUNNY     79  54  41 SE5       30.06S
6HR MIN TEMP:  79; 6HR MAX TEMP:  82;

MTN HOME       SUNNY     77  53  43 SE7       30.08S
6HR MIN TEMP:  77; 6HR MAX TEMP:  82;

$$

ARZ040-041-060100-
WEST CENTRAL ARKANSAS

CITY           SKY/WX    TMP DP  RH WIND       PRES   REMARKS
MENA           MOSUNNY   79  55  44 SE5       30.02F
MOUNT IDA      SUNNY     79  52  38 SE8       30.01F
6HR MIN TEMP:  79; 6HR MAX TEMP:  82;

$$

ARZ009-017-025-026-028-060100-
NORTHEAST ARKANSAS

CITY           SKY/WX    TMP DP  RH WIND       PRES   REMARKS
CORNING          N/A     82  54  36 SE14      30.10R
JONESBORO      CLEAR     81  49  32 S12       30.09S
6HR MIN TEMP:  79; 6HR MAX TEMP:  85;

NEWPORT        CLEAR     82  49  31 SE15      30.10S
6HR MIN TEMP:  82; 6HR MAX TEMP:  87;

WALNUT RIDGE   CLEAR     82  48  30 S15       30.09S
6HR MIN TEMP:  82; 6HR MAX TEMP:  84;

BLYTHEVILLE    PTCLDY    82  53  36 SE10      30.11S
6HR MIN TEMP:  82; 6HR MAX TEMP:  86;

$$

ARZ022-023-033-042-044-060100-
CENTRAL ARKANSAS

CITY           SKY/WX    TMP DP  RH WIND       PRES   REMARKS
LITTLE ROCK    MOSUNNY   81  52  36 S8G20     30.06F
6HR MIN TEMP:  81; 6HR MAX TEMP:  86;

N LITTLE ROCK  MOSUNNY   81  56  43 SE10      30.06
6HR MIN TEMP:  81; 6HR MAX TEMP:  84;

JACKSONVILLE   SUNNY     81  55  40 SE10G18   30.07S
6HR MIN TEMP:  81; 6HR MAX TEMP:  87;

SEARCY         MOSUNNY   81  56  42 S8        30.09S
6HR MIN TEMP:  81; 6HR MAX TEMP:  86;

HOT SPRINGS    MOSUNNY   81  54  39 SE10      30.04F
6HR MIN TEMP:  78; 6HR MAX TEMP:  84;

RUSSELLVILLE   PTSUNNY   79  57  46 E3        30.04F
6HR MIN TEMP:  79; 6HR MAX TEMP:  83;

CLINTON        FAIR      79  55  44 SE8       30.08S
$$

ARZ036-060100-
EAST ARKANSAS

CITY           SKY/WX    TMP DP  RH WIND       PRES   REMARKS
WEST MEMPHIS   CLEAR     79  54  41 S13       30.10F
6HR MIN TEMP:  79; 6HR MAX TEMP:  85;

$$

ARZ050-053-066-070-073-060100-
SOUTHWEST ARKANSAS

CITY           SKY/WX    TMP DP  RH WIND       PRES   REMARKS
ARKADELPHIA    FAIR      82  60  47 E5        30.04F
6HR MIN TEMP:  81; 6HR MAX TEMP:  87;

CAMDEN         MOSUNNY   82  54  36 NE8       30.04F
TEXARKANA      MOSUNNY   78  61  55 SE10G18   30.00F
6HR MIN TEMP:  78; 6HR MAX TEMP:  83;

EL DORADO      MOSUNNY   80  58  46 SE8       30.04F
6HR MIN TEMP:  80; 6HR MAX TEMP:  85;

DE QUEEN       PTSUNNY   79  59  50 SE8       29.97F
6HR MIN TEMP:  79; 6HR MAX TEMP:  83;

$$

ARZ056-057-069-060100-
SOUTHEAST ARKANSAS

CITY           SKY/WX    TMP DP  RH WIND       PRES   REMARKS
PINE BLUFF     SUNNY     80  56  43 SE10      30.07S
6HR MIN TEMP:  80; 6HR MAX TEMP:  85;

STUTTGART      CLEAR     82  52  34 SE13      30.09S
6HR MIN TEMP:  82; 6HR MAX TEMP:  86;

MONTICELLO     PTCLDY    81  57  43 SE7       30.07F
6HR MIN TEMP:  81; 6HR MAX TEMP:  85; 6HR PCP: TRACE;


$$




USA.gov is the U.S. government's official web portal to all federal, state and local government web resources and services.